Regional Weather Roundup
Issued by NWS New Orleans/Baton Rouge, LA

Home | Current Version | Previous Version | Text Only | Print | Product List | Glossary Off
Versions: 1 2 3 4 5 6 7 8 9 10 11 12 13 14 15 16 17 18 19 20 21 22 23 24 25 26 27 28 29 30 31 32 33 34 35 36 37 38 39 40 41 42 43 44 45 46 47 48 49 50

344
ASUS44 KLIX 190810
RWRLIX
NEW ORLEANS REGIONAL WEATHER ROUNDUP
NATIONAL WEATHER SERVICE NEW ORLEANS LA
300 AM CDT SAT APR 19 2014

NOTE: "FAIR" INDICATES FEW OR NO CLOUDS BELOW 12,000 FEET WITH NO
      SIGNIFICANT WEATHER AND/OR OBSTRUCTIONS TO VISIBILITY.
      SKY/WX - SKY CONDITION AND SIGNIFICANT WEATHER.
      TMP - AIR TEMPERATURE.     DP    - DEWPOINT TEMPERATURE.
      RH  - RELATIVE HUMIDITY.   PRES  - PRESSURE.
      HI  - HEAT INDEX.          WCI   - WIND CHILL INDEX.

*  THESE STATIONS ARE NOT NWS OR FAA STATIONS AND ARE NOT UNDER
   NWS QUALITY CONTROL.

LAZ038-040-048-061>063-065>067-069-190900-
SOUTHEAST LOUISIANA

CITY           SKY/WX    TMP DP  RH WIND       PRES   REMARKS
N.O. AUDUBON     N/A     59  52  78 MISG        N/A
N.O. INTL ARPT PTCLDY    60  53  77 NE18      30.11F
N.O. LAKEFRONT CLEAR     60  54  80 NE22      30.11F
N.O. DOWNTOWN*   N/A     61  48  63 N7G16     30.11F
SLIDELL        CLEAR     54  51  90 N6        30.11F
BATON ROUGE    CLEAR     56  53  90 CALM      30.13S
BOOTHVILLE     MOCLDY    60  55  83 N9G17     30.08F
BELLE CHASSE   CLEAR     58  52  80 NE9       30.09F
BOGALUSA*        N/A     55  51  88 N5        30.13F
GALLIANO*      SUNNY     61  54  78 N9G20     30.09F
NEW ROADS*       N/A     57  55  91 NE3       30.13S
GONZALES*        N/A     58  55  89 CALM      30.13R
HAMMOND*       CLEAR     57  52  82 NE5       30.13F
HOUMA*           N/A     58  54  84 NE7       30.11S
PORT FOURCHON* MOSUNNY   61  55  82 N10       30.11F

$$

MSZ070-080>082-190900-
SOUTHERN MISSISSIPPI

CITY           SKY/WX    TMP DP  RH WIND       PRES   REMARKS
MCCOMB         CLEAR     56  51  84 VRB3      30.13F
GULFPORT       CLEAR     58  52  80 N9        30.10F
BILOXI         PTCLDY    56  53  90 N9        30.09F
PASCAGOULA     MOCLDY    55  54  96 N9        30.09F

$$

COASTAL OBSERVATIONS
LAKE AND NEARSHORE STATIONS

STATION/POSITION TIME  TEMP    WIND        PRES    WAVE
                       AIR SEA DIR/SP/G            HT/PER
                 (UTC) (F)     (DEG/KT/KT) (MB)    (FT/S)
PASCAGOULA       0800   57     360/ 11/ 14 1018.3
WAVELAND YACHT   0800   57 66   10/ 13/ 16 1018.9
GRAND ISLE       0800   61 67   40/ 12/ 18 1019.1
SOUTHWEST PASS   0800   63 58   30/ 12/ 13 1018.6
NEW CANAL        0800   61 64   30/ 19/ 23 1019.8
SHELL BEACH      0800   60 62   10/ 20/ 24 1018.9

OFFSHORE STATIONS

STATION/POSITION TIME  TEMP    WIND        PRES    WAVE
                       AIR SEA DIR/SP/G            HT/PER
                 (UTC) (F)     (DEG/KT/KT) (MB)    (FT/S)
64 S DAUPHIN ISL 0729   62 70   10/ 23/ 29 1017.4

$$




USA.gov is the U.S. government's official web portal to all federal, state and local government web resources and services.